sat.trackr.live / text

‹ back to catalog

STARLINK-31494

NORAD 59238 · 2024-049H

PAYLOAD ACTIVE UNKNOWN

§ Identity

Operator
Country
US
Launch date
2024-03-16
Launch site
AFETR
Launch vehicle
Mass (kg)
RCS (m²)

Purposes: comms

External: N2YO · Heavens-Above · Gunter

§ Orbital elements

Epoch: 2026-05-25T03:47:24.242208Z

Period
94.27 min
Inclination
43.0029°
Eccentricity
0.0001067
Mean motion
15.27584831 rev/d
Perigee alt
482.3 km
Apogee alt
483.8 km
Semi-major
6,861.2 km
B*
3.1579e-5
RAAN
71.4504°
Arg perigee
262.9871°
Mean anomaly
97.0860°
Rev number
12,410

§ Raw data

STARLINK-314941 59238U 24049H   26145.15791947  .00000607  00000+0  31579-4 0  99982 59238  43.0029  71.4504 0001067 262.9871  97.0860 15.27584831124109

JSON: /api/v1/satellites/59238 · /tle

For live sub-satellite position, see the globe view (requires WebGL).

§ Visibility from observer

Set your observer location to see the next 7 days of passes ≥ 10°. The values pass through the URL so the page stays shareable.

No JS? Fill the form by hand. The geolocation button needs JavaScript.